Temperature
2 2 2 3 3 3 3 3 4 4 4 4 4 4 4 4 5 5 5 5 5 5 6 6 6 7 7 7 7 7 8 8 8 8 8 8 9 9 9 9 9 9 9
1 2 2 2 2 2 3 3 3 3 3 3 3 4 4 4 4 4 4 4 5 5 5 5 6 6 6 7 7 7 7 7 7 7 7 7 8 8 8 9 9 9 9
0 1 1 1 2 2 2 2 2 2 2 3 3 3 3 3 3 3 4 4 4 4 4 5 5 5 6 6 6 6 7 7 7 6 6 6 6 7 8 8 8 8 8
0 1 1 1 1 1 1 1 2 2 2 2 2 2 2 2 3 3 3 3 3 4 4 4 4 5 5 5 6 6 6 6 6 6 6 6 6 6 6 7 7 8 8
-0 0 0 0 0 1 1 1 1 1 1 1 1 1 1 2 2 2 2 2 3 3 3 3 4 4 4 5 5 5 5 6 6 6 6 6 6 6 6 6 7 7 7
-1 -0 -0 0 0 0 0 0 1 1 1 1 1 1 1 1 1 1 2 2 2 2 2 3 3 3 4 4 4 5 5 5 5 5 5 5 5 6 6 6 6 6 7
-1 -1 -1 -0 -0 -0 -0 -0 -0 -0 -0 -0 0 0 0 0 0 1 1 1 1 2 2 2 2 3 3 3 4 4 4 5 5 5 5 5 5 6 6 6 6 5 6
-1 -1 -1 -1 -1 -1 -1 -1 -1 -1 -1 -1 -1 -1 -1 -1 -0 -0 0 0 0 1 1 1 2 2 3 3 3 3 4 4 4 4 5 5 5 5 5 5 5 5 5
-2 -2 -2 -1 -1 -1 -1 -1 -1 -1 -1 -1 -1 -1 -1 -1 -1 -1 -1 -0 -0 0 1 1 1 2 2 2 2 3 3 3 4 4 4 4 4 5 5 5 5 5 5
-2 -2 -2 -2 -2 -2 -2 -2 -2 -2 -2 -2 -2 -2 -2 -2 -2 -2 -1 -1 -1 -0 0 0 1 1 1 2 2 2 2 3 3 3 4 4 4 4 4 4 4 4 5
-3 -3 -3 -2 -2 -2 -2 -2 -2 -2 -2 -2 -2 -2 -2 -2 -2 -2 -2 -1 -1 -1 -0 -0 -0 0 1 1 1 2 2 2 2 3 3 3 3 4 4 4 4 4 4
-3 -3 -3 -3 -3 -3 -3 -3 -3 -3 -3 -3 -3 -3 -3 -3 -3 -3 -2 -2 -2 -1 -1 -1 -1 -0 -0 0 0 1 1 1 1 2 2 2 3 3 3 3 3 3 3
-3 -3 -3 -3 -3 -3 -3 -3 -3 -3 -3 -3 -3 -3 -3 -3 -3 -3 -3 -3 -2 -2 -2 -2 -1 -1 -1 -1 -1 -1 -0 0 1 1 1 2 2 2 3 3 3 3 3
-4 -4 -4 -4 -4 -4 -4 -4 -4 -4 -4 -4 -4 -4 -4 -4 -4 -4 -3 -3 -3 -3 -2 -2 -2 -2 -2 -1 -1 -1 -1 -1 -0 0 1 1 1 2 2 2 2 2 2
-4 -4 -4 -4 -4 -4 -4 -4 -4 -4 -4 -4 -4 -4 -4 -4 -4 -4 -4 -4 -4 -3 -3 -3 -3 -2 -2 -2 -2 -2 -2 -1 -1 -0 -0 0 1 1 1 1 1 1 2
-5 -5 -5 -5 -5 -5 -5 -5 -5 -5 -5 -5 -5 -4 -4 -4 -4 -4 -4 -4 -4 -4 -4 -4 -4 -3 -3 -3 -3 -2 -2 -2 -2 -1 -1 -1 -0 0 0 0 1 1 1
-5 -5 -5 -5 -5 -5 -5 -5 -5 -5 -5 -5 -5 -5 -5 -5 -5 -5 -4 -5 -5 -5 -4 -4 -4 -4 -3 -3 -3 -3 -3 -3 -2 -2 -2 -1 -1 -1 -0 -0 -0 0 0
-6 -6 -6 -6 -6 -6 -6 -6 -6 -6 -6 -6 -6 -6 -6 -5 -5 -5 -5 -5 -5 -5 -5 -5 -4 -4 -4 -4 -4 -3 -3 -3 -3 -3 -2 -2 -2 -2 -1 -1 -1 -1 -0
-6 -6 -6 -6 -6 -6 -6 -6 -6 -6 -6 -6 -6 -6 -6 -6 -6 -6 -6 -6 -6 -6 -5 -5 -5 -5 -4 -4 -4 -4 -4 -4 -3 -3 -3 -3 -3 -2 -2 -2 -2 -1 -1
-6 -6 -7 -7 -7 -7 -7 -7 -7 -7 -7 -6 -6 -6 -6 -6 -6 -6 -6 -6 -6 -6 -6 -5 -5 -5 -5 -5 -5 -5 -5 -4 -4 -4 -4 -3 -3 -3 -3 -2 -2 -2 -2
-7 -7 -7 -7 -7 -7 -7 -7 -7 -7 -7 -7 -7 -7 -7 -7 -7 -7 -6 -7 -6 -6 -6 -6 -6 -5 -5 -5 -5 -5 -5 -5 -5 -4 -4 -4 -4 -3 -3 -3 -3 -3 -2
-7 -7 -7 -7 -8 -8 -8 -8 -8 -8 -8 -8 -7 -7 -7 -7 -7 -7 -7 -7 -7 -6 -6 -6 -6 -6 -6 -6 -6 -6 -6 -6 -5 -5 -5 -5 -4 -4 -4 -4 -3 -3 -3
-8 -8 -8 -8 -8 -8 -8 -8 -8 -8 -8 -8 -8 -7 -7 -7 -7 -7 -7 -7 -7 -7 -7 -7 -7 -7 -7 -7 -6 -6 -6 -6 -6 -6 -5 -5 -5 -5 -4 -4 -4 -4 -4
-8 -8 -8 -9 -8 -8 -9 -9 -9 -9 -8 -8 -8 -8 -8 -8 -8 -8 -8 -8 -8 -8 -8 -8 -8 -8 -8 -7 -7 -7 -7 -6 -6 -6 -6 -5 -5 -5 -5 -5 -4 -4 -4
-9 -9 -9 -9 -9 -9 -9 -9 -9 -9 -9 -9 -9 -8 -8 -8 -8 -8 -8 -8 -8 -8 -8 -8 -8 -8 -8 -8 -8 -7 -7 -7 -7 -7 -6 -6 -6 -6 -6 -6 -5 -5 -5
-9 -9 -9 -9 -9 -9 -9 -9 -9 -9 -9 -9 -9 -9 -9 -9 -9 -9 -8 -8 -9 -8 -9 -9 -9 -9 -9 -8 -8 -8 -7 -7 -7 -7 -7 -7 -7 -7 -7 -6 -6 -6 -6
Wind_Speed
1 1 2 2 3 3 3 3 4 4 3 2 2 2 3 3 4 5 6 7 6 5 4 3 3 2 2 3 3 2 2 2 2 1 0 1 1 2 2 2 2 2 3
1 1 2 3 3 3 4 3 4 4 4 3 2 2 2 2 4 5 6 7 7 6 4 4 3 3 2 2 2 3 2 2 3 2 1 1 1 2 2 2 3 2 2
1 2 2 2 3 3 4 4 4 4 4 4 3 2 2 2 2 3 4 6 7 6 6 5 4 4 3 3 4 4 4 3 3 3 3 2 3 1 2 3 2 2 2
2 2 3 3 3 4 4 4 4 4 4 4 2 2 2 4 4 4 4 6 7 6 6 6 5 4 3 3 4 4 3 5 5 3 2 2 2 2 2 2 2 2 3
2 2 3 3 4 4 4 3 4 4 4 4 3 2 3 3 3 4 4 5 6 6 6 5 5 4 3 4 4 4 4 4 5 4 3 2 1 2 3 3 3 2 2
2 3 3 3 4 4 3 3 4 5 4 4 4 3 4 4 4 5 5 4 4 5 5 5 5 4 4 4 4 5 5 5 5 4 4 4 3 3 3 3 3 4 3
3 3 4 5 5 5 5 4 4 5 5 5 4 4 4 4 5 5 5 5 5 5 5 5 5 5 5 5 5 5 6 6 7 6 5 5 5 4 3 3 3 3 2
3 4 4 4 5 5 5 4 4 5 5 5 5 4 5 4 4 5 5 5 5 5 6 6 5 5 5 6 5 4 5 5 6 6 6 5 5 4 4 3 3 3 3
4 5 5 4 4 5 5 5 5 5 5 5 5 5 4 4 5 5 5 5 5 6 6 6 5 5 5 5 5 4 5 4 4 5 5 5 4 4 4 4 4 4 4
5 5 5 5 5 5 5 5 4 5 6 5 5 5 5 5 5 5 5 5 6 6 6 6 5 5 5 5 4 4 4 4 4 4 5 5 4 4 3 4 4 4 4
6 6 6 6 6 5 5 5 5 5 5 5 5 5 5 5 5 4 5 5 6 6 6 6 5 5 5 4 4 4 4 4 4 4 5 6 5 4 4 4 4 4 3
5 5 5 5 5 5 5 5 5 5 6 5 5 5 5 5 5 5 5 5 6 6 6 6 5 6 5 4 4 5 4 4 5 5 4 5 4 5 4 4 5 4 4
6 5 5 5 5 5 5 5 5 6 6 5 5 5 5 5 5 6 6 5 5 6 5 5 6 6 5 5 5 5 5 5 5 5 5 5 4 5 4 5 5 5 4
5 5 5 5 5 5 5 5 6 6 6 5 5 5 5 5 6 6 6 6 5 6 5 5 5 5 5 5 5 5 5 5 5 5 5 5 5 5 5 5 5 4 4
6 6 6 6 5 5 5 5 6 6 6 5 5 6 5 5 5 6 6 6 6 6 6 6 5 5 5 5 5 5 5 5 5 5 5 5 5 6 5 5 5 5 4
7 7 7 6 6 6 6 6 6 6 5 5 6 6 6 6 5 6 6 6 6 5 5 6 6 6 5 7 8 6 5 5 5 5 5 5 5 6 7 7 6 6 6
7 7 7 7 7 6 6 6 6 6 6 6 6 6 6 6 6 6 6 6 6 6 6 6 6 6 7 8 8 8 5 5 5 5 5 4 5 5 4 6 7 6 8
6 6 6 7 6 6 6 6 5 6 6 6 6 5 5 6 6 6 6 6 5 5 6 6 6 6 7 8 8 8 5 5 5 5 5 6 5 5 4 4 5 5 5
6 6 6 6 6 6 6 6 6 5 6 6 6 6 5 6 6 6 6 6 6 6 6 6 6 6 6 8 8 7 4 4 5 5 5 5 5 7 7 5 5 5 5
4 5 5 5 5 6 5 5 6 6 7 7 7 7 6 6 6 6 6 6 5 5 6 6 5 5 6 8 8 7 4 4 5 4 5 7 7 8 7 6 6 6 6
5 5 5 5 5 6 5 5 6 7 8 8 7 7 6 6 6 5 5 5 5 5 5 6 6 6 7 8 9 8 4 4 5 5 4 5 8 9 8 8 6 8 6
5 5 5 5 6 5 5 6 7 8 7 7 7 7 6 5 5 5 5 5 4 4 4 5 6 5 5 7 8 9 8 7 5 5 4 5 8 8 8 7 7 7 6
5 5 4 6 6 5 4 6 7 7 7 7 7 7 6 5 5 4 4 4 3 3 4 4 5 5 5 5 9 9 9 9 5 5 7 8 8 8 6 6 6 5 4
5 5 5 5 6 6 6 6 7 7 6 7 7 6 6 5 5 3 3 3 3 3 4 4 5 5 6 5 5 4 5 6 6 4 6 8 8 6 5 5 4 3 3
5 4 5 6 7 7 7 7 7 6 6 6 6 6 5 5 4 4 3 4 4 4 5 4 5 5 6 8 10 7 4 3 4 4 3 2 2 2 2 2 2 2 2
5 5 6 6 7 7 7 7 7 5 5 6 6 5 5 5 4 4 5 7 7 10 10 9 9 7 9 12 12 10 9 8 7 4 2 2 2 3 3 3 3 2 2
Wind_Direction
239 22 12 6 13 14 10 4 4 354 356 349 338 333 327 327 328 330 329 324 316 305 304 305 283 260 225 216 200 192 189 178 152 114 10 310 252 225 220 209 202 201 204
355 3 3 14 13 358 354 354 353 343 343 333 311 289 300 303 310 318 325 323 321 316 299 305 281 268 256 229 210 191 186 190 173 151 146 231 276 257 234 219 208 214 210
289 320 332 343 351 348 344 342 334 333 333 334 341 345 341 334 329 328 326 324 318 311 307 296 279 259 244 231 227 209 200 196 199 181 170 177 222 273 252 231 216 209 217
302 317 330 327 325 322 332 336 333 332 335 340 341 318 315 310 306 308 308 312 311 306 303 299 288 262 249 236 236 224 218 198 201 200 205 209 182 200 237 257 243 235 229
276 303 311 308 315 322 331 328 339 340 340 337 318 298 291 296 306 311 308 314 314 312 308 303 298 285 264 246 238 243 225 216 209 202 197 200 225 217 211 236 239 255 242
301 313 317 326 333 334 333 334 344 340 343 334 323 313 296 299 306 309 307 313 311 312 315 315 302 293 281 259 250 240 232 225 222 216 204 200 203 208 212 226 234 245 246
304 311 324 327 330 334 329 330 336 330 334 332 323 314 307 297 288 293 294 301 303 303 304 307 304 301 293 278 262 246 242 229 223 221 219 213 216 211 215 220 240 257 268
303 302 303 307 314 320 325 320 318 317 319 318 314 312 308 302 295 292 290 287 287 289 299 300 299 299 295 285 270 253 249 239 227 227 229 227 224 216 212 208 211 242 252
306 305 307 309 311 312 310 309 305 309 311 310 311 307 303 297 294 293 292 290 286 293 298 297 294 294 290 283 274 262 255 250 239 228 227 233 230 220 219 214 211 211 233
313 311 316 315 314 309 304 311 303 299 304 305 304 306 303 298 291 294 293 293 293 296 294 294 293 293 289 285 273 270 270 259 253 235 224 232 231 222 223 219 222 223 227
303 305 309 314 318 318 313 314 311 310 308 305 304 304 303 300 297 294 293 292 293 296 294 292 292 291 288 281 272 269 269 263 267 255 232 234 229 221 224 224 219 221 222
300 303 307 317 319 319 320 318 312 305 300 297 298 296 298 302 301 298 296 293 290 293 293 296 290 287 283 277 268 268 265 257 260 261 249 248 242 226 225 225 222 222 222
308 314 313 313 311 314 318 318 315 307 303 299 297 299 302 304 301 299 298 294 292 291 291 291 288 287 284 277 269 262 260 253 251 252 247 247 244 238 229 225 223 223 228
302 305 307 308 312 316 317 316 314 314 314 309 304 298 295 296 296 298 297 294 288 288 288 286 286 289 287 279 274 268 263 260 257 254 249 246 239 242 232 228 224 220 221
305 303 306 311 316 317 317 316 315 318 317 315 311 301 299 298 298 299 298 296 293 292 289 289 288 288 284 275 271 265 265 263 264 260 254 250 251 250 242 237 224 217 217
298 303 309 312 310 308 310 314 315 313 311 307 303 302 304 304 302 302 302 302 299 296 294 293 292 292 288 295 290 280 267 264 264 264 261 260 257 262 265 263 246 232 220
295 301 303 300 299 298 298 301 304 308 307 302 300 301 301 301 301 303 303 300 300 299 296 292 288 283 285 292 291 290 279 266 260 262 263 264 262 259 259 267 260 256 252
294 299 302 303 303 304 304 306 308 307 305 302 298 299 300 298 299 299 294 293 292 291 291 291 285 284 289 293 293 294 283 272 264 259 256 253 257 254 252 253 253 251 254
287 290 295 300 304 308 309 313 312 312 310 306 300 297 293 293 294 292 292 294 291 289 289 289 287 285 290 294 292 291 274 268 267 262 258 254 254 261 253 247 248 254 260
299 301 308 310 310 311 317 317 314 314 307 305 302 296 290 288 287 288 292 295 292 291 295 296 294 288 286 290 290 289 267 267 269 264 259 264 265 268 259 239 236 245 256
308 312 314 313 310 314 322 318 315 308 305 307 306 301 292 286 282 284 288 292 295 295 295 301 304 297 292 291 291 290 272 262 266 266 263 263 274 271 268 258 242 247 254
318 318 319 317 318 321 322 316 311 311 314 312 311 309 303 296 294 295 295 294 291 298 304 307 311 308 304 297 291 292 288 284 266 265 264 266 280 277 273 269 259 258 259
311 313 312 313 318 319 315 308 310 316 318 318 317 315 315 310 306 299 298 300 299 302 306 307 309 312 312 310 305 299 298 296 286 272 277 283 288 288 275 273 275 261 242
309 314 317 315 315 317 315 307 311 317 317 316 318 320 321 316 316 318 317 315 307 304 306 307 309 311 313 312 306 289 290 295 291 284 284 288 291 292 286 282 280 263 242
309 310 308 306 308 315 316 318 321 323 320 317 317 321 322 320 328 331 325 319 304 295 304 301 301 306 308 309 312 308 295 288 278 286 276 268 278 283 282 283 275 260 251
305 307 305 305 308 313 315 319 321 321 318 318 322 325 323 325 330 334 337 337 333 332 330 326 321 317 315 318 321 321 319 315 309 302 277 273 271 269 272 278 280 270 262
Height
1520 1521 1522 1522 1522 1523 1522 1522 1521 1521 1521 1520 1519 1519 1519 1519 1519 1519 1519 1519 1519 1520 1520 1521 1521 1522 1523 1524 1526 1527 1528 1530 1531 1533 1534 1535 1537 1538 1539 1541 1542 1543 1545
1518 1519 1520 1520 1520 1520 1520 1520 1519 1519 1518 1518 1517 1517 1516 1516 1516 1516 1516 1516 1516 1516 1516 1517 1517 1518 1519 1520 1522 1523 1524 1526 1527 1529 1530 1531 1534 1534 1535 1537 1538 1540 1541
1516 1517 1518 1518 1518 1518 1518 1518 1517 1517 1516 1516 1515 1514 1514 1513 1513 1512 1512 1512 1512 1512 1512 1513 1513 1515 1515 1516 1517 1519 1520 1521 1523 1525 1527 1528 1528 1529 1531 1532 1533 1535 1537
1515 1516 1516 1516 1516 1516 1516 1516 1515 1515 1514 1513 1512 1511 1510 1509 1509 1508 1508 1508 1508 1508 1508 1509 1509 1510 1511 1512 1513 1515 1516 1517 1518 1520 1522 1524 1524 1526 1526 1527 1529 1531 1532
1514 1515 1515 1515 1514 1514 1513 1513 1513 1512 1512 1511 1510 1509 1508 1507 1506 1505 1505 1504 1504 1504 1504 1504 1505 1505 1506 1507 1508 1509 1511 1512 1513 1515 1516 1519 1520 1521 1522 1522 1524 1526 1527
1513 1513 1514 1513 1513 1512 1511 1511 1510 1509 1509 1508 1507 1505 1504 1503 1502 1502 1501 1500 1500 1500 1500 1500 1500 1501 1501 1502 1503 1504 1506 1507 1508 1510 1511 1513 1514 1516 1517 1518 1518 1520 1522
1512 1512 1511 1511 1511 1510 1509 1508 1507 1506 1505 1504 1503 1502 1501 1500 1499 1498 1497 1496 1496 1495 1495 1495 1495 1496 1496 1497 1498 1499 1500 1502 1503 1504 1506 1508 1509 1511 1513 1515 1515 1516 1517
1511 1510 1510 1509 1508 1508 1507 1505 1504 1503 1502 1501 1500 1499 1498 1497 1496 1495 1494 1493 1492 1492 1491 1491 1491 1491 1492 1492 1493 1494 1495 1496 1497 1499 1500 1502 1504 1506 1508 1510 1511 1511 1512
1509 1508 1508 1507 1506 1505 1504 1503 1501 1500 1499 1497 1496 1495 1494 1493 1492 1491 1490 1489 1488 1488 1487 1487 1487 1487 1487 1488 1488 1488 1489 1490 1491 1493 1495 1497 1499 1500 1502 1504 1506 1508 1507
1507 1507 1505 1504 1503 1503 1502 1500 1498 1497 1496 1494 1493 1491 1490 1489 1488 1487 1485 1484 1484 1483 1483 1482 1482 1482 1482 1482 1483 1483 1484 1484 1486 1488 1489 1491 1493 1494 1496 1498 1500 1502 1502
1506 1504 1503 1502 1501 1500 1499 1497 1495 1493 1492 1490 1489 1487 1486 1485 1484 1482 1481 1480 1479 1478 1478 1477 1477 1477 1477 1477 1477 1477 1478 1479 1481 1482 1483 1485 1487 1488 1490 1492 1494 1495 1497
1504 1503 1501 1500 1498 1497 1495 1493 1491 1490 1488 1487 1485 1483 1482 1481 1479 1478 1477 1475 1474 1474 1473 1472 1472 1472 1472 1472 1472 1472 1473 1474 1475 1476 1477 1479 1480 1482 1484 1486 1487 1489 1491
1502 1500 1499 1497 1495 1493 1491 1490 1488 1486 1485 1483 1481 1479 1478 1476 1475 1474 1473 1471 1470 1469 1468 1467 1467 1467 1467 1467 1467 1467 1467 1468 1469 1470 1471 1473 1474 1476 1478 1479 1481 1483 1484
1499 1498 1496 1494 1492 1490 1488 1486 1485 1483 1481 1479 1477 1475 1473 1472 1471 1470 1469 1467 1466 1465 1464 1463 1462 1462 1462 1462 1462 1463 1463 1463 1464 1464 1465 1466 1468 1469 1471 1473 1475 1476 1478
1496 1495 1493 1491 1488 1487 1485 1483 1481 1479 1477 1475 1473 1471 1470 1468 1467 1466 1465 1463 1462 1460 1459 1458 1457 1457 1457 1458 1458 1458 1458 1458 1458 1459 1460 1460 1462 1463 1465 1467 1468 1470 1472
1494 1492 1490 1488 1485 1483 1481 1479 1477 1476 1474 1471 1469 1467 1466 1464 1463 1462 1461 1459 1458 1456 1455 1454 1453 1452 1452 1453 1454 1454 1453 1453 1453 1454 1454 1455 1456 1457 1459 1461 1463 1464 1465
1491 1489 1487 1485 1483 1481 1478 1476 1474 1472 1470 1468 1466 1464 1462 1460 1459 1457 1456 1455 1453 1452 1451 1450 1449 1448 1448 1448 1449 1449 1449 1448 1448 1449 1449 1449 1450 1451 1453 1455 1456 1458 1459
1489 1487 1484 1482 1480 1478 1476 1473 1471 1469 1466 1464 1462 1460 1458 1457 1455 1453 1452 1451 1449 1448 1447 1446 1445 1444 1444 1443 1444 1444 1444 1443 1443 1443 1444 1444 1445 1446 1447 1448 1449 1451 1452
1487 1485 1482 1480 1477 1475 1472 1470 1468 1465 1463 1460 1458 1456 1455 1453 1451 1449 1448 1447 1445 1444 1443 1442 1441 1440 1439 1439 1439 1439 1439 1438 1438 1438 1438 1439 1439 1440 1441 1442 1443 1444 1446
1484 1482 1480 1477 1474 1472 1469 1467 1464 1462 1459 1457 1454 1453 1451 1449 1447 1445 1444 1443 1442 1440 1439 1438 1437 1436 1434 1434 1434 1434 1434 1433 1433 1433 1433 1433 1434 1435 1436 1437 1438 1438 1439
1481 1479 1476 1474 1471 1469 1466 1463 1461 1458 1456 1453 1451 1448 1447 1445 1443 1442 1440 1439 1438 1436 1435 1434 1432 1431 1430 1428 1428 1428 1429 1428 1427 1427 1427 1428 1429 1430 1430 1432 1432 1433 1434
1477 1475 1473 1471 1468 1466 1463 1460 1457 1455 1452 1449 1447 1444 1443 1441 1440 1438 1437 1435 1434 1432 1431 1430 1428 1427 1425 1424 1423 1423 1423 1423 1422 1422 1422 1422 1423 1424 1425 1425 1426 1427 1429
1475 1473 1470 1468 1466 1464 1461 1457 1455 1452 1449 1446 1444 1441 1439 1438 1436 1434 1433 1431 1430 1429 1428 1426 1424 1423 1421 1420 1419 1418 1418 1418 1418 1417 1417 1417 1418 1418 1419 1419 1420 1421 1423
1472 1470 1467 1465 1463 1461 1458 1455 1452 1449 1446 1443 1441 1438 1436 1434 1432 1431 1430 1428 1427 1425 1424 1423 1421 1419 1418 1416 1415 1414 1414 1413 1413 1412 1412 1412 1413 1413 1413 1414 1414 1416 1417
1470 1467 1465 1462 1460 1458 1455 1452 1449 1446 1444 1441 1439 1436 1434 1431 1429 1428 1427 1426 1425 1424 1422 1420 1419 1417 1415 1413 1412 1411 1410 1409 1408 1407 1406 1406 1406 1407 1407 1408 1408 1410 1411
1467 1465 1462 1460 1458 1455 1453 1450 1447 1444 1441 1438 1436 1434 1432 1429 1428 1426 1425 1424 1423 1421 1420 1418 1417 1414 1413 1410 1408 1407 1406 1405 1405 1404 1402 1402 1402 1402 1402 1403 1403 1405 1405